Waarnemingen

Advertentie
Mijn weer
Junsele A, Zweden (2243): temperatuur & dauwpunt: 16.06.2018 09:00:00 - 22.06.2018 09:00:00 (CEST)Junsele A, Zweden (2243): windsnelheid & windstoten: 16.06.2018 09:00:00 - 22.06.2018 09:00:00 (CEST)Junsele A, Zweden (2243): windrichting: 16.06.2018 09:00:00 - 22.06.2018 09:00:00 (CEST)Junsele A, Zweden (2243): luchtdruk: 16.06.2018 09:00:00 - 22.06.2018 09:00:00 (CEST)Junsele A, Zweden (2243): zicht: 16.06.2018 09:00:00 - 22.06.2018 09:00:00 (CEST)Junsele A, Zweden (2243): neerslag: 16.06.2018 09:00:00 - 22.06.2018 09:00:00 (CEST)
Datum & Tijd tt [°C] td [°C] ff [km/u] ff [kn] fx [km/u] fx [kn] dd ppp [hPa] vv [km] rr [mm]
22.06.2018 09:00:00 13,0 4,7 8 4 26 14 NW 997,9 42 0,0
22.06.2018 08:00:00 10,2 3,7 7 4 25 13 NW 998,9 50 0,0
22.06.2018 07:00:00 9,7 4,1 7 4 22 12 NNW 999,6 50 0,0
22.06.2018 06:00:00 8,8 4,2 7 4 26 14 NW 1000,1 47 0,0
22.06.2018 05:00:00 8,4 4,5 6 3 28 15 WNW 1000,8 50 0,0
22.06.2018 04:00:00 7,9 4,1 8 5 24 13 NW 1001,2 50 0,0
22.06.2018 03:00:00 8,1 3,7 7 4 21 11 NNW 1001,2 50 0,0
22.06.2018 02:00:00 8,6 3,6 7 4 23 13 NNW 1001,4 50 0,0
22.06.2018 01:00:00 9,0 5,0 5 3 17 9 NNW 1001,5 50 0,0
22.06.2018 00:00:00 10,0 4,4 5 3 19 11 WNW 1001,9 50 0,0
21.06.2018 23:00:00 11,4 3,7 7 4 24 13 NNW 1001,8 50 0,0
21.06.2018 22:00:00 12,8 4,5 6 3 23 12 NW 1001,8 50 0,0
21.06.2018 21:00:00 14,1 3,3 4 2 18 10 NNW 1001,5 50 0,0
21.06.2018 20:00:00 15,0 3,8 4 2 26 14 N 1001,5 50 0,0
21.06.2018 19:00:00 16,5 4,6 5 3 18 10 NW 1001,4 47 0,0
21.06.2018 18:00:00 17,0 3,4 6 3 23 12 NW 1001,6 39 0,0
21.06.2018 17:00:00 17,1 3,7 5 3 18 10 NW 1001,9 47 0,0
21.06.2018 16:00:00 15,9 4,0 9 5 17 9 WNW 1002,5 35 0,0
21.06.2018 15:00:00 15,2 3,7 5 3 16 9 W 1002,8 36 0,0
21.06.2018 14:00:00 14,5 3,1 6 4 21 11 WNW 1003,1 39 0,0
21.06.2018 13:00:00 14,2 3,1 6 4 16 8 N 1003,2 45 0,0
21.06.2018 12:00:00 14,6 4,1 5 3 17 9 NNW 1003,5 47 0,0
21.06.2018 11:00:00 13,3 4,5 5 3 15 8 NW 1003,8 50 0,0
21.06.2018 10:00:00 12,8 4,3 6 4 21 11 NW 1003,9 37 0,0
21.06.2018 09:00:00 11,4 4,2 6 3 17 9 NW 1004,3 50 0,0
21.06.2018 08:00:00 11,4 4,9 5 3 18 10 NW 1004,2 46 0,0
21.06.2018 07:00:00 9,7 4,5 6 3 17 9 W 1004,7 50 0,0
21.06.2018 06:00:00 9,0 5,0 5 3 16 8 WNW 1004,8 50 0,0
21.06.2018 05:00:00 5,5 4,6 4 2 8 5 W 1005,1 50 0,0
21.06.2018 04:00:00 5,4 4,0 3 1 12 7 WZW 1005,3 50 0,0
21.06.2018 03:00:00 7,2 4,4 5 3 14 8 W 1005,1 50 0,0
21.06.2018 02:00:00 7,9 4,8 6 3 14 8 W 1005,1 50 0,0
21.06.2018 01:00:00 7,5 5,0 5 3 9 5 W 1005,3 50 0,0
21.06.2018 00:00:00 7,8 4,4 3 2 14 8 W 1005,2 50 0,0
20.06.2018 23:00:00 9,1 4,9 2 1 12 7 W 1005,2 50 0,0
20.06.2018 22:00:00 10,1 4,0 6 3 22 12 W 1004,5 50 0,0
20.06.2018 21:00:00 11,6 4,1 7 4 21 11 W 1004,4 50 0,0
20.06.2018 20:00:00 12,9 3,9 10 6 29 16 W 1004,3 50 0,0
20.06.2018 19:00:00 13,5 3,9 9 5 32 18 W 1004,3 35 0,0
20.06.2018 18:00:00 13,8 3,6 15 8 37 20 W 1004,3 48 0,0
20.06.2018 17:00:00 15,9 3,3 15 8 42 23 W 1004,0 43 0,0
20.06.2018 16:00:00 15,5 3,7 16 8 38 20 W 1003,9 47 0,0
20.06.2018 15:00:00 15,1 3,0 16 9 44 24 W 1003,9 46 0,0
20.06.2018 14:00:00 14,6 3,2 18 10 43 23 W 1004,1 39 0,0
20.06.2018 13:00:00 14,0 2,3 16 9 39 21 W 1003,9 46 0,0
20.06.2018 12:00:00 14,8 3,3 15 8 37 20 W 1003,9 39 0,0
20.06.2018 11:00:00 12,9 2,2 19 11 42 23 W 1004,0 46 0,0
20.06.2018 10:00:00 12,7 3,1 16 8 45 24 W 1003,6 46 0,0
20.06.2018 09:00:00 12,1 2,0 15 8 50 27 W 1003,1 46 0,0
20.06.2018 08:00:00 12,1 2,0 17 9 43 23 W 1002,7 37 0,0
20.06.2018 07:00:00 11,1 2,7 15 8 40 22 W 1002,6 50 0,0
20.06.2018 06:00:00 10,3 3,1 13 7 34 18 W 1002,3 49 0,0
20.06.2018 05:00:00 9,4 2,9 11 6 30 16 W 1001,7 50 0,0
20.06.2018 04:00:00 8,3 3,0 9 5 29 15 W 1001,7 50 0,0
20.06.2018 03:00:00 7,8 3,1 8 5 28 15 W 1001,3 50 0,0
20.06.2018 02:00:00 6,3 3,4 3 2 13 7 W 1001,3 50 0,0
20.06.2018 01:00:00 8,3 3,7 5 3 23 13 W 1000,8 50 0,0
20.06.2018 00:00:00 9,3 3,7 7 4 31 17 W 1000,2 50 0,0
19.06.2018 23:00:00 11,0 4,0 14 7 34 18 W 999,4 50 0,0
19.06.2018 22:00:00 11,8 3,8 14 8 38 21 W 998,6 50 0,0
19.06.2018 21:00:00 13,4 4,5 12 7 41 22 W 997,7 50 0,0
19.06.2018 20:00:00 14,6 4,0 12 7 49 26 W 996,8 50 0,0
19.06.2018 19:00:00 15,7 6,5 10 6 29 15 W 995,9 50 0,0
19.06.2018 18:00:00 14,4 7,0 10 5 46 25 WZW 995,9 50 0,0
19.06.2018 17:00:00 15,6 3,4 12 6 36 20 W 994,9 50 0,0
19.06.2018 16:00:00 16,6 5,6 14 8 37 20 W 994,3 41 0,0
19.06.2018 15:00:00 15,0 6,3 9 5 29 15 W 994,5 45 0,0
19.06.2018 14:00:00 13,6 6,7 10 5 31 17 WNW 994,5 47 0,0
19.06.2018 13:00:00 11,7 7,6 13 7 33 18 W 994,4 43 0,0
19.06.2018 12:00:00 10,1 8,6 9 5 26 14 W 994,2 47 0,1
19.06.2018 11:00:00 8,4 7,8 11 6 27 14 W 994,1 23 0,2
19.06.2018 10:00:00 7,7 7,4 8 4 20 11 W 993,6 13 1,4
19.06.2018 09:00:00 7,6 7,3 11 6 25 13 W 993,1 11 4,2
19.06.2018 08:00:00 11,6 10,7 10 6 39 21 ZZW 991,9 15 0,5
19.06.2018 07:00:00 11,9 11,1 6 3 16 8 ZZO 993,0 16 0,2
19.06.2018 06:00:00 12,0 10,6 4 2 14 7 ZZO 994,3 50 0,3
19.06.2018 05:00:00 11,5 10,2 5 3 11 6 ZO 995,3 50 0,0
19.06.2018 04:00:00 11,0 10,3 2 1 11 6 ONO 996,4 50 0,0
19.06.2018 03:00:00 10,9 10,3 5 3 13 7 OZO 997,3 50 0,0
19.06.2018 02:00:00 10,6 10,3 4 2 10 6 ONO 998,3 50 0,0
19.06.2018 01:00:00 11,2 10,9 5 3 11 6 ZO 999,2 50 0,0
19.06.2018 00:00:00 10,4 10,3 4 2 8 4 OZO 999,9 20 0,0
18.06.2018 23:00:00 11,4 11,1 5 3 14 8 OZO 1000,8 49 0,0
18.06.2018 22:00:00 12,3 11,6 5 3 12 6 O 1001,1 50 0,0
18.06.2018 21:00:00 13,4 11,8 5 3 18 10 O 1001,5 50 0,0
18.06.2018 20:00:00 13,5 11,9 10 5 23 13 ZO 1001,8 50 0,0
18.06.2018 19:00:00 13,6 13,2 3 2 16 8 ZO 1002,5 17 0,7
18.06.2018 18:00:00 14,6 11,4 8 5 20 11 Z 1002,5 15 0,0
18.06.2018 17:00:00 18,4 10,0 6 3 20 11 ZZO 1002,3 50 0,0
18.06.2018 16:00:00 17,4 10,3 5 3 18 10 Z 1002,8 39 0,0
18.06.2018 15:00:00 17,2 10,1 8 4 17 9 ZW 1003,3 36 0,0
18.06.2018 14:00:00 15,5 10,7 5 3 14 8 WZW 1003,8 42 0,0
18.06.2018 13:00:00 13,9 10,3 8 4 15 8 WZW 1003,9 45 0,0
18.06.2018 12:00:00 12,5 10,5 7 4 18 10 WZW 1004,0 36 0,0
18.06.2018 11:00:00 11,9 10,8 6 3 14 7 WZW 1003,9 23 0,0
18.06.2018 10:00:00 11,9 10,9 5 3 13 7 W 1003,6 42 0,0
18.06.2018 09:00:00 10,4 10,1 3 2 9 5 W 1003,5 17 0,7
18.06.2018 08:00:00 10,5 10,2 2 1 6 3 WNW 1003,4 5 1,7
18.06.2018 07:00:00 10,6 10,3 2 1 8 4 N 1003,8 10 0,0
18.06.2018 06:00:00 10,0 10,0 1 1 8 4 W 1004,6 11 0,1
18.06.2018 05:00:00 9,7 9,7 3 2 8 5 NO 1005,5 5 0,4
18.06.2018 04:00:00 9,5 9,5 4 2 13 7 NNO 1006,1 7 1,9
18.06.2018 03:00:00 9,6 9,4 6 4 15 8 ONO 1007,4 6 1,4
18.06.2018 02:00:00 9,8 9,5 5 3 11 6 NO 1008,0 16 0,1
18.06.2018 01:00:00 9,7 9,6 4 2 9 5 NNO 1009,1 12 0,4
18.06.2018 00:00:00 10,0 9,7 5 3 10 6 ONO 1010,4 8 1,2
17.06.2018 23:00:00 10,6 10,3 4 2 12 7 O 1011,8 7 1,0
17.06.2018 22:00:00 11,1 10,8 2 1 6 3 NO 1012,3 7 1,3
17.06.2018 21:00:00 11,8 11,2 2 1 8 5 ONO 1012,6 12 0,6
17.06.2018 20:00:00 12,7 11,9 3 2 8 4 O 1012,9 19 0,2
17.06.2018 19:00:00 15,0 9,4 3 1 12 7 Z 1012,7 35 0,0
17.06.2018 18:00:00 16,0 8,3 6 4 23 12 ZZO 1013,1 39 0,0
17.06.2018 17:00:00 16,6 8,8 8 5 25 13 Z 1013,6 34 0,0
17.06.2018 16:00:00 17,5 6,7 9 5 21 12 ZZO 1013,6 50 0,0
17.06.2018 15:00:00 17,8 6,9 9 5 28 15 ZZO 1013,9 50 0,0
17.06.2018 14:00:00 16,7 7,4 10 5 24 13 OZO 1014,5 46 0,0
17.06.2018 13:00:00 16,5 8,0 8 5 22 12 OZO 1014,9 48 0,0
17.06.2018 12:00:00 16,4 8,1 5 3 18 10 ZO 1015,4 42 0,0
17.06.2018 11:00:00 16,3 7,3 10 5 26 14 ZZW 1015,8 46 0,0
17.06.2018 10:00:00 18,3 6,8 11 6 35 19 ZO 1015,3 49 0,0
17.06.2018 09:00:00 18,3 8,3 8 4 27 14 OZO 1015,3 44 0,0
17.06.2018 08:00:00 15,8 6,8 11 6 24 13 ZO 1015,9 47 0,0
17.06.2018 07:00:00 13,0 6,4 5 3 14 7 O 1016,5 50 0,0
17.06.2018 06:00:00 11,0 6,4 3 2 8 4 ONO 1016,8 50 0,0
17.06.2018 05:00:00 9,2 5,2 5 3 10 5 NO 1017,1 50 0,0
17.06.2018 04:00:00 5,3 3,0 3 2 11 6 OZO 1017,5 50 0,0
17.06.2018 03:00:00 5,0 2,7 3 2 11 6 O 1017,6 50 0,0
17.06.2018 02:00:00 6,7 3,2 1 1 13 7 ZW 1017,4 50 0,0
17.06.2018 01:00:00 9,6 4,0 7 4 17 9 NO 1017,0 50 0,0
17.06.2018 00:00:00 7,7 4,0 2 1 6 3 NO 1017,2 50 0,0
16.06.2018 23:00:00 10,1 4,7 2 1 7 4 NNW 1016,4 50 0,0
16.06.2018 22:00:00 13,3 4,5 1 1 9 5 N 1015,7 50 0,0
16.06.2018 21:00:00 16,0 3,2 3 2 11 6 NNO 1014,6 50 0,0
16.06.2018 20:00:00 18,5 2,8 3 2 13 7 N 1014,1 50 0,0
16.06.2018 19:00:00 18,4 2,7 5 3 15 8 NNW 1013,8 50 0,0
16.06.2018 18:00:00 18,9 4,3 5 3 13 7 NW 1013,6 34 0,0
16.06.2018 17:00:00 17,1 6,3 3 2 11 6 WZW 1013,6 50 0,0
16.06.2018 16:00:00 17,3 4,9 3 2 18 10 NNW 1013,1 50 0,0
16.06.2018 15:00:00 18,4 4,6 5 3 19 10 WZW 1012,6 44 0,0
16.06.2018 14:00:00 17,9 4,1 5 3 19 10 WNW 1012,3 50 0,0
16.06.2018 13:00:00 18,6 3,3 6 3 18 10 O 1011,8 34 0,0
16.06.2018 12:00:00 19,6 4,2 5 3 21 11 NW 1011,6 50 0,0
16.06.2018 11:00:00 18,1 4,0 5 3 15 8 N 1011,6 46 0,0
16.06.2018 10:00:00 16,6 4,9 3 2 10 5 W 1011,8 50 0,0
16.06.2018 09:00:00 15,7 3,8 5 3 14 7 W 1011,5 47 0,0

tt = temperatuur
td = dauwpunt
ff = windsnelheid
fx = windstoten
dd = windrichting
ppp = luchtdruk
vv = zicht
rr = neerslag

Weerstations in de omgeving